GPS BIIRM-5 (PRN 29)

Last updated on Sat Dec 13 2025 00:03:17 GMT+0000 (Coordinated Universal Time)

1 32384U 07062A 25345.80591090 -.00000074 00000+0 00000+0 0 9996 2 32384 55.1830 281.6834 0032234 162.4856 4.3365 2.00577226131751
UTC large
Height (km)
Speed (km/s)
/
Latitude / Longitude
Inclination (degrees)
Orbital Period (minutes)
Azimuth
Elevation
Range (km)
Doppler Factor

Next 0 passes for location: London (51.5072 / 0.1276)

Sorry there are no passes over London.